Flag for Netherlands Weather past 2 weeks in Oss, Netherlands

Now
52 °F

Overcast.


Feels Like: 50 °F
Forecast: 40 / 52 °F
Wind: 6 mph from North

Location: Volkel

Current Time: Apr 26, 2015 at 10:09:03 PM

Latest Report: Apr 26, 2015 at 9:25 PM


Visibility: N/A

Pressure: 29.68 "Hg

Humidity: 94%

Dew point: 50 °F

Location of OssLocation

Historic Weather in Oss — Graph

°F

Oss temperature yesterday

Maximum temperature yesterday: 61 °F (at 12:59 PM)
Minimum temperature yesterday: 50 °F (at 6:55 AM)
Average temperature yesterday: 55 °F

Past Weeks' High & Low Weather Summary

 TemperatureHumidityPressure
High75 °F (Apr 15, 3:55 PM)100% (Apr 12, 7:55 AM)30.48 "Hg (Apr 12, 7:55 AM)
Low30 °F (Apr 19, 6:25 AM)28% (Apr 20, 3:25 PM)29.68 "Hg (Apr 26, 3:25 PM)
Average51 °F70%30.15 "Hg
* Reported Apr 11 8:25 PM — Apr 26 8:55 PM, Oss, Weather by CustomWeather, © 2015

Note: Actual official high and low records may vary slightly from our data, if they occured in-between our weather recording intervals... More about our weather records

Advertising

Oss weather history for previous 24 hours

 ConditionsComfort  
Time TempWeatherWind HumidityBarometerVisibility
8:55 PM
Sun, Apr 26
54 °FOvercast.6 mph88%29.68 "HgN/A
8:25 PM54 °FMore clouds than sun.5 mph88%29.68 "HgN/A
7:55 PM55 °FMore clouds than sun.6 mph82%29.68 "HgN/A
7:25 PM55 °FMostly cloudy.6 mph88%29.68 "HgN/A
7:00 PM57 °FBroken clouds.6 mph82%29.68 "HgN/A
6:55 PM57 °FBroken clouds.6 mph82%29.68 "HgN/A
6:25 PM57 °FScattered clouds.6 mph82%29.68 "HgN/A
5:59 PM57 °FPartly sunny.5 mph82%29.68 "HgN/A
5:55 PM57 °FBroken clouds.5 mph82%29.68 "HgN/A
5:25 PM57 °FDrizzle. Broken clouds.5 mph82%29.68 "HgN/A
4:55 PM57 °FBroken clouds.2 mph88%29.68 "HgN/A
4:25 PM57 °FLight rain. Broken clouds.5 mph82%29.68 "Hg6 mi
3:55 PM57 °FLight rain. Partly sunny.6 mph82%29.68 "HgN/A
3:25 PM61 °FBroken clouds.8 mph68%29.68 "HgN/A
2:55 PM61 °FBroken clouds.8 mph63%29.71 "HgN/A
2:25 PM63 °FBroken clouds.8 mph59%29.71 "HgN/A
1:55 PM63 °FCloudy.8 mph64%29.71 "HgN/A
1:25 PM61 °FOvercast.10 mph68%29.71 "HgN/A
12:55 PM59 °FBroken clouds.7 mph72%29.71 "HgN/A
12:25 PM59 °FBroken clouds.9 mph72%29.71 "HgN/A
12:04 PM61 °FMore clouds than sun.10 mph72%29.71 "HgN/A
11:55 AM59 °FBroken clouds.12 mph72%29.71 "HgN/A
11:25 AM61 °FPartly sunny.10 mph72%29.71 "HgN/A
11:00 AM57 °FBroken clouds.10 mph77%29.71 "HgN/A
10:55 AM59 °FPartly sunny.10 mph77%29.71 "HgN/A
10:25 AM57 °FMore clouds than sun.8 mph82%29.71 "HgN/A
9:59 AM55 °FBroken clouds.8 mph88%29.71 "HgN/A
9:55 AM55 °FBroken clouds.10 mph88%29.71 "HgN/A
9:25 AM55 °FMore clouds than sun.12 mph88%29.71 "HgN/A
8:59 AM55 °FOvercast.9 mph88%29.71 "HgN/A
8:25 AM55 °FFog.10 mph88%29.71 "Hg4 mi
7:55 AM54 °FFog.9 mph94%29.71 "Hg3 mi
7:25 AM54 °FFog.8 mph94%29.71 "Hg3 mi
6:59 AM54 °FFog.7 mph94%29.71 "Hg4 mi
6:55 AM54 °FFog.8 mph94%29.71 "Hg4 mi
6:25 AM54 °FFog.9 mph94%29.71 "Hg5 mi
5:55 AM54 °FFog.9 mph94%29.71 "Hg4 mi
5:25 AM54 °FFog.6 mph94%29.71 "Hg4 mi
4:55 AM54 °FFog.6 mph94%29.71 "Hg4 mi
4:25 AM54 °FFog.6 mph94%29.71 "Hg4 mi
3:55 AM54 °FSprinkles. Partly cloudy.6 mph94%29.71 "Hg4 mi
3:25 AM54 °FPassing clouds.8 mph94%29.71 "Hg4 mi
3:04 AM54 °FPassing clouds.8 mph94%29.71 "Hg5 mi
2:59 AM54 °FPassing clouds.7 mph94%29.71 "Hg4 mi
2:25 AM54 °FOvercast.5 mph88%29.71 "HgN/A
1:55 AM52 °FMostly cloudy.6 mph94%29.74 "HgN/A
1:25 AM48 °FOvercast.2 mph100%29.74 "HgN/A
12:55 AM52 °FPassing clouds.2 mph88%29.74 "HgN/A
12:25 AM50 °FMostly cloudy.3 mph100%29.74 "HgN/A
11:59 PM
Sat, Apr 25
50 °FFog.3 mph100%29.74 "Hg6 mi
11:00 PM50 °FFog.1 mph100%29.74 "Hg2 mi
10:25 PM50 °FFog.1 mph100%29.74 "Hg4 mi
Weather by CustomWeather, © 2015

See weather overviewHow to use our weather pages